This is the latest recevied weather packets stored in our database for station/object K5WNG. If no packets are shown the sender has not sent any weather packets the latest 10 day(s).
| Time | Temp. | Humidity | Pressure | Rain* | Wind** | Luminosity | Snow |
|---|---|---|---|---|---|---|---|
| 1777577420 | 18.89° C | 98% | 1011.9 hPa | 9.91 mm | - | 437 W/m² | - |
| 1777577119 | 18.33° C | 99% | 1011.9 hPa | 10.16 mm | - | 416 W/m² | - |
| 1777576817 | 18.33° C | 99% | 1011.9 hPa | 10.16 mm | - | 412 W/m² | - |
| 1777576517 | 17.78° C | 99% | 1011.8 hPa | 10.16 mm | - | 439 W/m² | - |
| 1777576217 | 17.22° C | 99% | 1012.6 hPa | 10.16 mm | - | 276 W/m² | - |
| 1777575917 | 17.22° C | 99% | 1012.6 hPa | 9.91 mm | - | 72 W/m² | - |
| 1777575617 | 17.22° C | 99% | 1011.8 hPa | 8.13 mm | - | 60 W/m² | - |
| 1777575320 | 17.22° C | 99% | 1013.6 hPa | 6.35 mm | - | 15 W/m² | - |
| 1777575017 | 17.22° C | 99% | 1013.1 hPa | 4.32 mm | - | 10 W/m² | - |
| 1777574725 | 17.22° C | 99% | 1012.9 hPa | 3.05 mm | - | 14 W/m² | - |
| 1777574420 | 17.22° C | 99% | 1012.9 hPa | 1.78 mm | - | 11 W/m² | - |
| 1777574117 | 17.22° C | 98% | 1013.2 hPa | 1.02 mm | - | 7 W/m² | - |
| 1777573821 | 17.22° C | 98% | 1013.2 hPa | 0.25 mm | - | 11 W/m² | - |
| 1777573518 | 17.78° C | 98% | 1013 hPa | 0 mm | - | 14 W/m² | - |
| 1777573218 | 17.78° C | 98% | 1012.7 hPa | 0 mm | - | 26 W/m² | - |
| 1777572921 | 17.78° C | 97% | 1012.4 hPa | 0 mm | - | 49 W/m² | - |
| 1777572618 | 17.78° C | 97% | 1012.1 hPa | 0 mm | - | 66 W/m² | - |
| 1777572317 | 17.78° C | 97% | 1012.1 hPa | 0 mm | - | 83 W/m² | - |
| 1777572018 | 17.78° C | 97% | 1012.2 hPa | 0 mm | - | 95 W/m² | - |
| 1777571721 | 17.78° C | 97% | 1012.2 hPa | 0 mm | - | 95 W/m² | - |
| 1777571419 | 18.33° C | 97% | 1012.3 hPa | 0 mm | - | 141 W/m² | - |
| 1777571118 | 18.33° C | 96% | 1012.3 hPa | 0 mm | - | 242 W/m² | - |
| 1777570818 | 18.33° C | 97% | 1012.4 hPa | 0.25 mm | - | 208 W/m² | - |
| 1777570521 | 18.33° C | 97% | 1012.3 hPa | 1.27 mm | - | 182 W/m² | - |
| 1777570219 | 18.33° C | 97% | 1012.2 hPa | 3.3 mm | - | 253 W/m² | - |
* Rain latest hour (hover to see other rain measurements)
** Current wind speed in m/s (hover to see current wind gust speed)